Powrót do katalogu

CZ-4C R/B

AktywnyPO
NORAD 43264·ROCKET BODY·🇨🇳 China

Wystrzelony Mar 31, 2018 z Taiyuan Satellite Launch Center

Loading…

Następne Przeloty (najbliższe 24 godziny)

TLE

ŚwieżeSource: Space-Track

Epoka: Sep 14, 2026, 12:47 UTC

1 43264U 18031F   26257.53264048  .00006146  00000-0  22893-3 0  9990
2 43264  98.1274 186.2406 0077229  88.7385 272.2697 15.25078016464874

Śledź CZ-4C R/B w czasie rzeczywistym z AllMySat

Download on the App Store